Theta_e
314 315 317 318 318 319 320 320 320 320 320 319 319 319 319 318 318 318 318 317 317 317 317 317 317 318 319 320 321 322 322 322 322 322 320 320 319 317 315 314 312 311
312 312 312 313 314 315 315 316 316 317 317 317 317 317 317 317 316 316 316 316 316 315 315 315 315 316 316 316 317 317 318 319 319 319 318 317 317 317 315 314 313 312
311 311 311 312 312 312 313 313 314 315 315 315 315 315 316 315 315 315 315 315 315 314 314 314 314 314 314 314 314 314 314 315 315 315 316 315 315 316 315 314 313 312
310 310 310 311 311 311 312 312 312 313 313 314 314 314 314 315 314 314 314 314 314 314 314 314 313 313 313 313 313 313 312 313 313 314 314 314 315 314 314 313 313 313
309 309 309 310 310 310 310 311 311 311 312 312 313 313 313 314 314 314 314 314 313 313 313 313 313 313 313 313 312 312 312 312 312 312 313 312 312 312 311 311 311 311
308 308 308 309 309 309 309 310 310 310 311 311 311 312 312 312 313 313 313 313 313 313 313 313 312 312 312 312 312 312 312 312 311 311 311 311 311 311 311 310 310 311
308 308 308 308 308 308 309 309 309 309 309 309 310 310 310 311 311 311 312 312 312 312 312 312 312 312 312 312 312 312 311 311 311 310 310 310 311 311 311 311 310 310
309 308 308 308 308 308 308 308 308 308 308 308 309 309 309 309 310 310 310 311 311 311 311 311 312 311 311 311 311 311 311 311 310 309 309 309 310 310 310 310 310 309
308 308 307 308 307 307 307 307 308 307 307 307 308 308 308 308 309 309 309 310 310 310 310 311 311 311 311 311 310 310 310 310 310 309 309 309 309 309 309 309 309 308
308 308 307 307 307 307 307 307 307 307 307 307 307 307 307 307 308 308 308 308 309 309 309 310 310 310 310 310 310 310 310 309 309 308 308 308 308 308 309 308 308 307
309 309 308 307 307 307 307 307 307 307 307 307 306 306 307 307 307 307 307 307 307 308 308 309 309 309 309 309 309 309 309 309 308 308 307 307 307 308 308 308 308 307
309 309 308 308 307 307 307 307 307 306 306 307 306 306 306 306 306 306 306 306 306 307 307 307 308 308 308 309 309 309 309 308 308 307 307 307 307 307 308 308 307 306
308 308 307 307 307 307 307 307 307 306 306 306 306 305 305 305 305 305 305 305 305 306 306 306 307 307 307 308 308 308 308 308 307 306 306 306 307 307 308 308 306 305
305 306 306 306 306 306 306 307 306 306 306 306 306 305 305 305 304 304 304 304 304 304 305 305 305 306 306 306 307 307 307 307 306 306 305 306 306 307 307 307 306 305
303 304 304 304 305 305 305 306 305 305 305 305 305 305 305 305 304 304 304 304 304 304 304 304 304 305 305 306 306 307 306 306 305 305 305 305 305 306 305 305 305 304
300 301 301 302 302 302 302 303 303 304 304 304 304 304 304 304 303 303 303 303 304 303 303 303 303 304 304 305 305 306 306 305 304 304 304 304 304 304 304 304 304 303
298 298 298 298 298 298 298 299 300 301 301 302 303 302 302 302 302 302 303 302 303 303 302 302 302 303 303 304 305 305 304 304 303 303 304 304 304 304 304 303 303 303
299 298 298 298 298 297 297 297 297 298 298 299 300 300 300 300 300 301 301 301 301 301 302 302 302 302 302 303 303 303 303 303 302 302 302 303 303 303 303 303 302 302
301 301 301 300 299 299 298 298 297 297 297 297 298 298 298 299 299 299 299 300 300 300 300 301 301 302 302 302 302 302 302 302 301 302 301 302 302 302 302 302 301 301
302 302 302 301 301 300 300 300 299 298 297 297 297 297 297 298 298 298 299 299 299 299 299 300 300 301 301 301 302 301 301 301 300 301 300 300 301 301 300 300 300 300
302 301 301 301 301 300 300 300 299 298 298 298 297 297 297 297 297 298 298 299 298 298 298 299 299 299 300 300 301 301 301 300 300 299 299 299 299 299 299 299 299 299
300 300 300 300 299 299 299 298 297 297 297 296 296 296 296 296 296 297 297 297 298 298 298 298 299 299 298 299 300 300 299 299 299 298 298 298 298 298 298 298 298 297
299 298 298 297 297 296 296 296 296 295 295 295 295 295 295 295 295 296 296 296 296 297 297 297 298 298 298 298 298 298 298 297 297 297 297 296 296 297 297 297 296 296
299 297 296 296 295 295 294 294 294 294 294 294 293 293 294 294 294 295 295 295 295 296 296 296 296 297 297 297 297 297 297 296 296 296 295 295 295 295 295 295 294 294
299 298 296 295 294 294 294 293 293 293 293 293 292 292 292 293 293 293 294 294 294 295 295 295 295 296 296 296 296 296 296 295 295 294 294 294 294 294 294 293 293 292
298 298 296 294 293 293 293 293 293 292 292 292 292 292 291 292 292 292 293 293 293 293 294 294 294 294 295 295 295 295 294 294 293 293 293 293 293 293 293 292 291 291
Wind_Speed
21 23 25 27 29 30 30 31 31 31 32 31 31 31 30 29 28 28 28 28 29 29 30 31 32 34 36 37 37 36 37 37 37 36 34 34 37 39 41 44 44 43
19 21 23 25 27 28 28 29 30 31 31 31 30 30 29 29 28 27 28 27 28 28 28 29 30 31 32 34 35 36 37 38 38 36 34 34 35 36 39 41 42 43
17 18 20 23 25 26 27 27 28 30 30 30 30 29 29 28 28 28 28 27 27 28 28 28 29 30 31 32 32 34 35 36 37 36 36 37 37 36 37 38 39 41
15 16 17 19 21 23 25 26 28 29 29 30 30 29 29 28 28 28 28 27 28 28 28 28 28 28 29 30 31 32 34 35 35 35 35 37 37 37 37 36 38 40
15 15 16 17 19 21 22 24 27 28 28 30 29 29 29 29 28 28 28 28 28 28 28 28 29 28 29 30 31 32 33 34 35 35 35 37 37 37 37 36 38 39
18 17 17 17 18 19 21 23 25 26 28 29 29 29 29 29 29 29 29 29 29 29 29 29 29 29 29 29 31 33 34 35 35 34 34 37 37 36 36 35 36 38
22 21 19 19 19 20 22 23 24 26 27 27 28 29 29 29 30 31 31 31 31 31 31 31 30 30 29 29 31 33 34 35 35 34 35 36 36 37 37 35 35 36
24 24 23 22 22 22 23 24 25 25 26 26 28 28 28 29 31 31 31 32 32 33 33 33 33 32 31 31 31 33 34 35 35 35 36 37 36 37 38 36 35 35
25 25 25 25 25 25 25 25 26 26 26 26 27 27 27 29 30 31 32 32 33 34 34 34 35 34 34 33 33 34 34 35 35 35 36 37 38 38 38 37 35 34
27 27 26 26 26 26 26 26 26 26 26 27 27 27 27 27 28 30 31 32 34 35 35 36 36 36 35 35 35 35 35 35 35 35 36 37 38 38 37 36 36 35
29 29 29 29 28 28 28 27 27 28 28 27 28 28 28 27 28 29 30 32 33 34 36 36 37 37 37 37 37 36 36 37 36 36 37 37 38 38 37 36 36 35
30 30 31 30 30 30 29 28 28 28 28 28 28 29 29 28 29 29 29 31 33 34 35 36 37 37 37 38 38 37 37 37 37 37 37 37 37 37 37 37 36 35
30 30 30 30 30 30 30 29 29 28 28 28 28 29 30 30 30 30 30 31 32 33 34 36 36 37 38 38 38 38 38 37 37 37 37 37 37 37 37 36 35 36
29 29 29 29 29 29 30 30 29 29 28 28 28 29 31 31 32 32 31 31 32 33 34 34 35 37 38 38 38 38 38 38 37 36 36 36 36 36 37 36 35 35
28 29 29 29 29 29 29 29 29 29 29 29 29 29 29 30 31 32 32 33 33 34 34 34 35 37 37 37 38 38 38 38 37 36 36 36 36 36 36 36 35 34
28 28 29 29 29 29 29 29 29 29 29 29 29 30 29 29 28 29 31 32 34 34 35 35 35 36 36 36 36 37 38 38 37 36 35 35 35 36 36 36 34 32
29 30 30 30 30 30 30 29 29 29 28 28 28 29 29 29 29 30 30 31 32 33 34 35 36 36 36 35 36 36 36 37 36 36 35 35 35 35 36 35 33 31
34 35 34 33 33 33 33 32 31 31 30 30 29 29 28 29 30 31 32 31 31 32 33 34 35 35 35 35 35 34 34 35 36 36 35 35 35 35 35 34 32 30
39 40 40 40 39 38 38 36 35 34 33 33 33 32 30 30 30 31 32 32 32 33 34 35 35 34 33 33 34 34 33 33 35 35 35 35 35 34 34 33 31 28
40 41 42 43 42 42 42 41 40 39 37 37 36 35 34 33 33 32 33 32 32 33 35 36 36 34 32 32 32 32 32 32 33 34 34 34 34 33 32 31 29 28
40 41 42 42 43 43 43 43 42 41 40 39 38 37 36 36 35 34 34 33 33 33 35 38 38 35 33 32 31 31 30 31 32 33 33 34 33 32 31 30 28 28
39 40 41 41 41 41 41 41 40 40 39 39 39 38 37 36 36 36 35 34 34 33 34 38 38 36 34 33 31 30 29 29 30 31 32 33 32 31 30 29 29 28
37 38 39 39 38 38 39 38 38 38 38 37 37 39 38 37 37 37 36 35 35 34 33 36 38 35 33 33 31 29 28 29 29 30 31 31 31 30 29 29 28 27
37 36 37 37 37 37 37 37 37 37 36 35 35 36 38 37 36 36 37 35 34 34 33 35 37 35 32 32 31 28 27 28 28 29 29 30 29 28 27 27 27 26
36 36 35 35 36 36 35 36 36 36 35 35 34 35 36 37 35 35 37 36 34 34 34 33 35 35 31 30 30 28 27 27 28 28 27 27 26 26 26 26 26 25
35 35 35 34 34 35 35 35 35 35 35 35 35 35 35 36 35 34 36 36 34 33 33 32 32 33 31 28 27 26 25 26 27 26 25 25 24 25 25 25 24 23
Wind_Direction
274 271 269 269 268 268 268 268 269 268 269 269 270 271 272 273 273 271 269 268 267 266 264 262 259 256 254 254 255 256 258 259 259 260 259 256 254 251 249 248 245 244
285 281 277 274 273 273 272 272 272 272 272 273 273 275 275 275 274 273 272 271 269 269 268 266 265 263 260 257 255 255 256 257 257 258 259 260 259 256 253 251 248 246
297 292 287 283 281 280 280 279 277 275 275 276 276 276 277 277 276 274 273 272 270 270 269 268 267 266 264 262 259 257 256 257 257 258 259 259 259 259 259 257 254 250
312 305 299 294 290 288 285 282 280 279 278 278 278 279 279 278 276 275 274 273 272 271 270 268 267 266 266 264 262 260 258 257 258 257 256 256 256 257 260 262 259 256
328 321 313 307 302 298 292 287 285 284 282 282 283 282 281 279 277 277 276 275 274 274 272 269 267 266 266 265 262 261 260 259 258 257 256 258 259 259 262 263 262 259
340 334 326 319 314 307 301 298 296 293 289 288 288 286 284 282 280 279 278 277 276 275 272 270 268 266 265 263 262 261 261 261 260 259 257 258 259 260 261 261 259 257
348 344 339 331 325 318 312 311 308 303 300 296 292 290 287 285 283 282 281 279 277 275 272 270 267 266 265 261 259 259 260 261 261 259 257 258 258 258 258 257 256 256
356 352 348 342 337 331 325 322 319 315 311 304 299 297 293 288 286 285 283 281 278 275 273 272 270 267 265 261 258 258 259 259 259 257 257 257 257 256 256 255 255 256
3 359 354 349 345 340 336 332 328 324 318 311 307 305 299 294 291 288 285 281 278 276 274 273 272 270 267 263 260 259 259 259 257 256 256 256 256 257 257 256 255 257
2 359 357 354 350 345 341 338 333 330 325 319 315 311 305 300 296 291 286 282 278 277 276 274 273 271 269 265 263 262 261 260 258 256 256 256 256 257 259 258 257 258
357 355 354 353 351 347 343 339 336 333 329 325 320 315 310 306 300 294 289 285 281 280 278 276 275 273 270 268 267 266 264 262 260 258 257 257 258 258 259 259 259 262
353 351 349 348 347 346 342 339 337 334 331 328 324 318 313 308 303 299 293 289 286 284 281 279 277 274 271 270 269 268 266 264 262 260 258 258 258 259 260 259 261 266
355 352 348 345 343 341 339 337 335 333 331 328 324 318 314 310 306 302 298 294 290 287 283 281 279 275 272 271 270 268 266 264 263 261 260 259 260 260 260 260 264 269
358 355 351 348 344 340 337 334 332 331 329 326 323 319 315 313 309 306 302 297 293 289 286 283 279 275 272 270 269 268 266 264 262 261 260 260 261 261 259 260 265 269
357 355 354 352 350 346 342 337 333 330 327 325 323 320 317 314 310 307 303 299 296 292 289 285 279 276 273 271 269 268 266 264 262 261 260 260 261 261 260 260 263 267
354 353 352 351 350 348 346 342 338 334 330 327 325 322 320 317 312 306 302 299 297 295 291 286 281 278 276 273 270 268 266 264 262 261 260 260 260 260 260 260 262 267
353 351 350 349 347 346 344 343 341 338 335 332 329 326 323 319 313 308 304 301 298 295 291 287 284 282 280 277 273 269 265 263 262 262 260 259 259 259 259 260 262 268
352 350 349 348 346 345 343 342 341 339 338 335 332 330 326 320 315 311 307 303 299 294 291 288 286 285 282 280 277 272 267 264 262 261 259 258 258 257 258 259 261 266
350 348 347 347 346 344 343 342 341 340 340 338 335 332 328 323 319 314 310 306 301 296 293 291 290 288 285 282 279 275 270 266 263 261 259 258 257 256 257 258 260 263
347 346 345 344 344 343 341 341 341 340 339 339 336 333 329 325 322 317 313 309 305 300 297 294 292 290 288 284 281 277 272 267 264 262 260 258 257 257 257 258 259 262
344 343 343 342 341 340 339 338 338 337 337 337 335 332 329 325 322 318 315 312 308 304 300 297 295 294 291 287 283 278 274 268 264 262 259 258 257 257 257 258 261 263
341 340 339 339 338 337 336 335 335 333 334 334 332 329 327 324 321 318 315 312 310 306 301 298 298 297 294 291 287 281 275 268 264 261 258 257 257 257 258 260 261 261
338 336 335 335 334 334 332 331 330 329 330 331 329 326 324 322 320 318 314 311 308 305 301 298 298 298 296 293 289 284 277 269 263 260 257 256 256 257 259 261 260 259
334 332 332 331 330 329 328 328 327 326 326 327 325 322 320 319 318 316 313 310 307 305 302 298 297 298 296 293 290 284 277 269 263 259 256 255 256 257 258 259 258 257
330 328 328 327 326 325 325 324 323 323 323 324 322 319 317 316 316 314 312 310 308 306 303 299 297 298 296 293 290 285 278 269 263 257 255 255 256 256 257 257 254 252
326 325 324 324 323 322 322 321 320 321 321 322 321 319 317 315 314 312 310 310 309 307 305 301 298 297 296 293 289 285 279 271 263 257 255 256 256 255 254 252 249 246